Location: Unspecified
(46.0725°N, 13.7344°E)
Time: 09:41:27
(UTC+02:00)

Cosmos 2058 - Pass Details

Date: 15 June 2024
Orbit: 545 x 564 km, 82.5° (Epoch: 17 July)

Event Time Altitude Azimuth Distance (km) Brightness Sun altitude
Exits shadow 03:11:46 - 144° (SE) 2,663 6.1 -14.9°
Reaches altitude 10° 03:14:27 10° 123° (ESE) 1,837 5.5 -14.7°
Maximum altitude 03:16:54 16° 85° (E) 1,509 5.5 -14.5°
Drops below altitude 10° 03:19:22 10° 48° (NE) 1,855 6.8 -14.3°
Sets 03:22:15 0° 26° (NNE) 2,761 8.3 -14.0°
